Content
SEND FEEDBACK

Daily
Averages
Monthly
Summary
United States of America

SHELBURNE FALLS, MASSACHUSETTS


Home > North America > United States > Massachusetts
Elevation: 400 feet     Latitude: 42 36N     Longitude: 072 44W

WEATHER
 
SELECT A DAY
Number of Records: 215,721;   Date Range: 7/1/96 - 10/20/14
 
SHARE

PRINT THIS DATA

[ ← Previous Day ]
WEATHER ALMANAC - MARCH 14, 2014
[ Next Day → ]
[ °C ]   °F
Weather ElementAverageHighLow
Temperature22.7 °F34 °F (5:52 pm)6.1 °F (6:52 am)
Dewpoint8.3 °F21 °F (11:52 pm)-4 °F (1:52 am)
Humidity55.7 %80 % (6:52 am)38 % (1:52 pm)
Barometer30.05 in30.19 in (9:52 am)29.89 in (11:52 pm)
Wind Speed8.6 mph16.1 mph (12:52 pm)
Wind Gust19.6 mph (12:52 pm)
Weather ElementAverage
Visibility10 mi
Wind DirectionSSE (162.2 °)

Weather ElementTotal
Precipitation---
Heating Degree Days45 (Base 65)
Averaged from 23 records on March 14, 2014
WEATHER CONDITIONS BREAKOUT
WIND DIRECTION BREAKOUT
WEATHER BY HOUR - MARCH 14, 2014
[ °C ]   °F
Local TimeTemperatureDewpointHumidityBarometerVisibilityWind DirectionWind SpeedGust SpeedPrecipitationEventsConditions
1:52 AM12.0 °F-4.0 °F49 %30.01 in10.0 miCalmClear
2:52 AM7.0 °F-0.9 °F70 %30.03 in10.0 miSouth (170°)3.5 mphClear
3:52 AM7.0 °F-0.9 °F70 %30.04 in10.0 miENE (70°)4.6 mphClear
4:52 AM10.0 °F-0.9 °F61 %30.07 in10.0 miNorth (10°)4.6 mphClear
5:52 AM10.0 °F1.0 °F67 %30.11 in10.0 miNW (320°)3.5 mphMostly Cloudy
6:52 AM6.1 °F1.0 °F80 %30.13 in10.0 miSouth (170°)3.5 mphClear
7:52 AM8.1 °F3.0 °F80 %30.16 in10.0 miEast (90°)3.5 mphMostly Cloudy
8:52 AM16.0 °F6.1 °F65 %30.17 in10.0 miSouth (190°)4.6 mphOvercast
9:52 AM19.0 °F7.0 °F59 %30.19 in10.0 miSSW (200°)11.5 mphOvercast
10:52 AM21.0 °F7.0 °F55 %30.17 in10.0 miSouth (190°)12.7 mphMostly Cloudy
11:52 AM24.1 °F7.0 °F48 %30.16 in10.0 miSouth (180°)11.5 mphOvercast
12:52 PM26.1 °F3.9 °F39 %30.12 in10.0 miSouth (190°)16.1 mph19.6 mphOvercast
1:52 PM28.0 °F5.0 °F38 %30.08 in10.0 miSouth (170°)11.5 mphOvercast
2:52 PM30.0 °F9.0 °F41 %30.05 in10.0 miSouth (190°)11.5 mphOvercast
3:52 PM32.0 °F10.9 °F42 %30.03 in10.0 miSouth (190°)15.0 mphClear
4:52 PM33.1 °F12.0 °F42 %29.99 in10.0 miSSE (160°)13.8 mphClear
5:52 PM34.0 °F14.0 °F44 %29.96 in10.0 miSouth (190°)9.2 mphClear
6:52 PM33.1 °F16.0 °F50 %29.95 in10.0 miSouth (190°)11.5 mph19.6 mphClear
7:52 PM34.0 °F17.1 °F50 %29.95 in10.0 miSouth (180°)11.5 mphClear
8:52 PM33.1 °F17.1 °F52 %29.94 in10.0 miSouth (190°)12.7 mphClear
9:52 PM33.1 °F19.0 °F56 %29.95 in10.0 miSouth (170°)9.2 mphClear
10:52 PM32.0 °F19.9 °F61 %29.93 in10.0 miSSE (160°)5.8 mphClear
11:52 PM33.1 °F21.0 °F61 %29.89 in10.0 miSSE (160°)6.9 mphClear
Hourly data recorded from KORE, located miles away from Shelburne Falls, Massachusetts







STORIES FROM OUR PARTNERS